星链-3824 (STARLINK-3824 )

导读 | 星芒AI

STARLINK-3824 是由 SpaceX 发射的星链计划中的一颗低轨道通信卫星,属于第 12 批星链组网卫星(Batch 12)。该卫星于 2023 年 9 月 20 日通过猎鹰 9 号火箭从美国卡纳维拉尔角发射升空。它运行在约 550 公里的高度,旨在为全球用户提供高速互联网服务。作为星链系统的一部分,STARLINK-3824 采用先进的相控阵天线和激光通信技术,以提升网络连接的稳定性和效率。

基本信息
目录编号:
52360
目录名称:
STARLINK-3824
国际标识:
2022-045AF
轨道中心:
EARTH
卫星名称:
星链-3824
卫星全名:
星链-3824 (STARLINK-3824 )
卫星状态:
已陨落 最后检测时间 2025-08-07
发射日期:
2022-04-29 UTC
国别 :
美国 (US)
星等 :
--
轨道信息
数据来源 国际轨道数据
星历时间: 2025-08-07T15:12:55+0800
轨道信息已过期89天
半长轴: 6574.517km
偏心率: 0.0007548
轨道倾角: 53.204°
近地点辐角 281.284°
升交点赤经 29.360°
平近点角 78.736°
近地点: 191.419km
远地点: 201.345km
周期: 88.421分钟
每日圈数: 16.285723
详细信息
固有亮度:
5
最大亮度:
2.5
卫星平台:
Starlink v1.5
覆盖范围:
全球
运营商:
太空探索技术公司
运营商所在国:
美国
制造商(研发单位):
太空探索技术公司
制造商所在国:
美国
使用方式:
暂无
卫星简介
星链(Starlink)计划是由太空探索技术公司(SpaceX)提出的一个巨型低轨卫星互联网星座项目,计划在2019年至2024年间在太空搭建由约1.2万颗卫星组成的“星链”网络,其中1584颗将部署在地球上空550千米处的近地轨道,并从2020年开始工作。该卫星仍在工作。